Flag for India Weather past 2 weeks in Thiruvananthapuram, Kerala, India

Now
86 °F

Haze.


Feels Like: 95 °F
Forecast: 78 / 90 °F
Wind: 3 mph from Northeast

Location: Thiruvananthapuram

Current Time: Jan 29, 2015 at 10:44:20 AM

Latest Report: Jan 29, 2015 at 9:40 AM


Visibility: 2 mi

Pressure: 29.89 "Hg

Humidity: 70%

Dew point: 75 °F

Location of ThiruvananthapuramLocation

Historic Weather in Thiruvananthapuram — Graph

°F

Thiruvananthapuram temperature yesterday

Maximum temperature yesterday: 90 °F (at 12:40 PM)
Minimum temperature yesterday: 75 °F (at 3:40 AM)
Average temperature yesterday: 83 °F

Past Weeks' High & Low Weather Summary

 TemperatureHumidityPressure
High90 °F (Jan 15, 2:40 PM)89% (Jan 17, 4:40 AM)30.04 "Hg (Jan 17, 4:40 AM)
Low73 °F (Jan 17, 6:40 AM)49% (Jan 21, 10:40 AM)29.74 "Hg (Jan 28, 2:40 PM)
Average82 °F74%29.88 "Hg
* Reported Jan 14 7:40 AM — Jan 29 7:40 AM, Thiruvananthapuram, Weather by CustomWeather, © 2014

Note: Actual official high and low records may vary slightly from our data, if they occured in-between our weather recording intervals... More about our weather records

Advertising

Thiruvananthapuram weather history for previous 24 hours

 ConditionsComfort  
Time TempWeatherWind HumidityBarometerVisibility
7:40 AM
Jan 29
79 °FHaze.No wind79%29.83 "Hg1 mi
6:40 AM77 °FHaze.No wind83%29.80 "Hg2 mi
5:40 AM77 °FHaze.No wind83%29.80 "Hg2 mi
4:40 AM77 °FHaze.No wind83%29.77 "Hg2 mi
3:40 AM77 °FHaze.No wind83%29.77 "Hg2 mi
2:40 AM79 °FHaze.No wind84%29.80 "Hg2 mi
1:40 AM79 °FHaze.No wind79%29.80 "Hg2 mi
12:40 AM79 °FHaze.No wind84%29.83 "Hg2 mi
11:40 PM
Jan 28
81 °FHaze.No wind79%29.83 "Hg2 mi
10:40 PM82 °FHaze.No wind74%29.83 "Hg2 mi
9:40 PM82 °FHaze.No wind74%29.83 "Hg3 mi
8:40 PM82 °FHaze.No wind74%29.80 "Hg3 mi
7:40 PM84 °FHaze.No wind70%29.77 "Hg3 mi
6:40 PM86 °FPassing clouds.3 mph66%29.77 "Hg4 mi
5:40 PM86 °FPassing clouds.3 mph70%29.74 "Hg4 mi
4:40 PM90 °FPassing clouds.3 mph67%29.74 "Hg4 mi
3:40 PM90 °FPassing clouds.3 mph67%29.74 "Hg4 mi
2:40 PM90 °FPassing clouds.5 mph67%29.74 "Hg4 mi
1:40 PM90 °FPassing clouds.6 mph63%29.77 "Hg4 mi
12:40 PM90 °FPassing clouds.6 mph63%29.83 "Hg4 mi
11:40 AM88 °FPassing clouds.7 mph66%29.83 "Hg4 mi
10:40 AM88 °FHaze.6 mph66%29.86 "Hg3 mi
Weather by CustomWeather, © 2014

See weather overviewHow to use our weather pages